Location: Central Falls
(41.8900°N, 71.3929°W)
Time: 06:50:22
(UTC+00:00)

Altair - Pass Details

Date: 11 December 2023
Orbit: 1501 x 1682 km, 47.2° (Epoch: 29 February)

Event Time Altitude Azimuth Distance (km) Brightness Sun altitude
Rises 18:48:21 0° 294° (WNW) 4,703 10.1 18.5°
Reaches altitude 10° 18:51:56 10° 284° (WNW) 3,696 9.8 18.2°
Maximum altitude 18:59:26 29° 229° (SW) 2,492 10.4 17.4°
Drops below altitude 10° 19:06:51 10° 174° (S) 3,641 10.4 16.6°
Sets 19:10:23 0° 164° (SSE) 4,622 10.6 16.2°
